Stanley, ID

8:34 AM MDT on September 25, 2016 (GMT -0600)
Stanley

Weather History for KSNT - October, 2013

Change the Weather History Date:

Wednesday, October 2, 2013

  Actual Average Record
Temperature  
Mean Temperature 34 °F 43 °F  
Max Temperature 48 °F 61 °F 83 °F (2010)
Min Temperature 20 °F 26 °F 14 °F (1921)
Degree Days  
Heating Degree Days 31 22  
Month to date heating degree days 58 43  
Since 1 July heating degree days 809 1084  
Cooling Degree Days 0 0  
Month to date cooling degree days 0 0  
Year to date cooling degree days 19 3  
Moisture  
Dew Point 24 °F    
Average Humidity 64    
Maximum Humidity 96    
Minimum Humidity 31    
Precipitation  
Precipitation 0.00 in 0.02 in 0.23 in (1983)
Month to date precipitation 0.00 0.04  
Year to date precipitation 10.50 12.25  
Sea Level Pressure  
Sea Level Pressure 29.94 in    
Wind  
Wind Speed 2 mph (North)    
Max Wind Speed 10 mph    
Max Gust Speed 14 mph    
T = Trace of Precipitation, MM = Missing Value Source: NWS Daily Summary

Daily Weather History Graph

Daily Weather History Graph

Search for Another Location

Airport or City:

Trip Planner

Search our weather history database for the weather conditions in past years. The results will help you decide how hot, cold, wet, or windy it might be!

Date:

Astronomy

Oct. 02, 2013 Rise Set
Actual Time 7:39 AM MDT 7:18 PM MDT
Civil Twilight 7:10 AM MDT 7:46 PM MDT
Nautical Twilight 6:36 AM MDT 8:20 PM MDT
Astronomical Twilight 6:02 AM MDT 8:54 PM MDT
Moon 5:12 AM MDT (10/2) 5:59 PM MDT (10/2)
Length of Visible Light 12h 36m
Length of Day
11h 39m
Waning Crescent, 6% of the Moon is Illuminated
Oct 2
Waning Crescent
Oct 4
New
Oct 11
First Quarter
Oct 18
Full
Oct 26
Last Quarter

Hourly Weather History & Observations

Time (MDT) Temp. Windchill Dew Point Humidity Pressure Visibility Wind Dir Wind Speed Gust Speed Precip Events Conditions
12:51 AM 26.1 °F - 21.9 °F 84% 30.04 in - Calm Calm - N/A   Unknown
1:51 AM 25.0 °F - 21.9 °F 88% 30.03 in - Calm Calm - N/A   Unknown
2:51 AM 25.0 °F - 21.9 °F 88% 30.04 in - Calm Calm - N/A   Unknown
3:51 AM 23.0 °F 18.4 °F 21.0 °F 92% 30.04 in - South 3.5 mph - N/A   Unknown
4:51 AM 23.0 °F - 21.0 °F 92% 30.04 in - Calm Calm - N/A   Unknown
5:51 AM 21.0 °F - 19.9 °F 96% 30.05 in - Calm Calm - N/A   Unknown
6:51 AM 21.0 °F - 19.0 °F 92% 30.05 in - Calm Calm - N/A   Unknown
7:51 AM 23.0 °F 18.4 °F 21.0 °F 92% 30.05 in - SSE 3.5 mph - N/A   Unknown
8:51 AM 25.0 °F - 21.9 °F 88% 30.04 in - Calm Calm - N/A   Unknown
9:51 AM 27.0 °F - 25.0 °F 92% 30.05 in - Calm Calm - N/A   Unknown
10:51 AM 30.0 °F - 26.1 °F 85% 30.04 in - Calm Calm - N/A   Unknown
11:51 AM 34.0 °F 31.0 °F 26.1 °F 73% 30.01 in - North 3.5 mph - N/A   Unknown
12:51 PM 37.9 °F 35.5 °F 27.0 °F 65% 29.98 in - NNE 3.5 mph - N/A   Unknown
1:51 PM 43.0 °F 40.3 °F 25.0 °F 49% 29.92 in - Variable 4.6 mph - N/A   Unknown
2:51 PM 46.0 °F 43.1 °F 26.1 °F 46% 29.86 in - North 5.8 mph - N/A   Unknown
3:51 PM 46.0 °F 44.8 °F 17.1 °F 31% 29.83 in - Variable 3.5 mph - N/A   Unknown
4:51 PM 46.0 °F 43.9 °F 21.0 °F 37% 29.82 in - North 4.6 mph - N/A   Unknown
5:51 PM 46.0 °F 43.1 °F 21.0 °F 37% 29.82 in - NNW 5.8 mph - N/A   Unknown
6:51 PM 43.0 °F - 24.1 °F 47% 29.84 in - Calm Calm - N/A   Unknown
7:51 PM 39.9 °F 37.8 °F 26.1 °F 58% 29.84 in - NE 3.5 mph - N/A   Unknown
8:51 PM 37.9 °F 34.4 °F 27.0 °F 65% 29.84 in - North 4.6 mph - N/A   Unknown
9:51 PM 34.0 °F 31.0 °F 28.0 °F 79% 29.83 in - West 3.5 mph - N/A   Unknown
10:51 PM 34.0 °F - 28.9 °F 82% 29.82 in - Calm Calm - N/A   Unknown
11:51 PM 34.0 °F - 28.0 °F 79% 29.78 in - Calm Calm - N/A   Unknown